カタログに戻る

STARLINK-33566

運用中通信VLEO
NORAD 62100·PAYLOAD·🇺🇸 United States

打ち上げ Nov 25, 2024 から Cape Canaveral Space Force Station

Loading…

次のパス (今後24時間)

TLE

最新Source: CelesTrak SupGP

元期: Sep 15, 2026, 02:14 UTC

1 62100C 24220N   26258.09354167 -.00042677  00000+0 -15459-2 0  2588
2 62100  42.9996 201.1833 0001129 270.2476 237.1885 15.27596793    18

AllMySatでSTARLINK-33566をリアルタイム追跡

Download on the App Store